Skip Page Navigation
NASA JPL Caltech
NASA Logo - Jet Propulsion Laboratory + View the NASA Portal
+ Center for Near-Earth Object Studies
JPL Home Earth Solar System Stars & Galaxies Technology
JPL Solar System Dynamics
BODIES ORBITS EPHEMERIDES TOOLS PHYSICAL DATA DISCOVERY FAQ SITE MAP
JPL Small-Body Database Browser
Search: [ help ]  
393562 (2003 HT17)
Classification: Main-belt Asteroid          SPK-ID: 2393562
Ephemeris | Orbit Diagram | Orbital Elements | Mission Design | Physical Parameters | Discovery Circumstances | Close-Approach Data ]

[ hide orbit diagram ]

For accurate long-term ephemerides, please instead use our Horizons system.This orbit viewer was implemented using two-body methods, and hence should not be used for determining accurate long-term trajectories (over several years or decades) or planetary encounter circumstances.


[ revert to old Java-based viewer ]

Orbital Elements at Epoch 2459000.5 (2020-May-31.0) TDB
Reference: JPL 9 (heliocentric ecliptic J2000)
 Element Value Uncertainty (1-sigma)   Units 
e .04484983298123121 1.3309e-07  
a 3.070763094871604 5.3079e-08 au
q 2.933039882941684 4.423e-07 au
i 13.01690871857864 1.3608e-05 deg
node 200.8046913541799 2.4558e-05 deg
peri 34.17217481499618 0.00011211 deg
M 43.14062284999348 0.00010756 deg
tp 2458764.966977148418
(2019-Oct-08.46697715)
0.00058576 TDB
period 1965.4766812571
5.38
5.096e-05
1.395e-07
d
yr
n .1831616744339839 4.749e-09 deg/d
Q 3.208486306801524 5.5459e-08 au
  Orbit Determination Parameters
   # obs. used (total)      134  
   data-arc span      5851 days (16.02 yr)  
   first obs. used      2003-04-25  
   last obs. used      2019-05-02  
   planetary ephem.      DE431  
   SB-pert. ephem.      SB431-N16  
   condition code      0  
   norm. resid. RMS      .72517  
   source      ORB  
   producer      Otto Matic  
   solution date      2020-Feb-26 04:51:16  

Additional Information
 Earth MOID = 1.93264 au 
 Jupiter MOID = 1.77041 au 
 T_jup = 3.190 
[ show covariance matrix ]

Ephemeris | Orbit Diagram | Orbital Elements | Mission Design | Physical Parameters | Discovery Circumstances | Close-Approach Data ]

Physical Parameter Table
Parameter Symbol Value Units Sigma Reference Notes
absolute magnitude H 16.1   n/a MPO437611  
diameter diameter 3.726 km 0.972 urn:nasa:pds:neowise_diameters_albedos::2.0[mainbelt] (http://adsabs.harvard.edu/abs/2011ApJ...741...68M)  
geometric albedo albedo 0.046   0.016 urn:nasa:pds:neowise_diameters_albedos::2.0[mainbelt] (http://adsabs.harvard.edu/abs/2011ApJ...741...68M)  

393562 (2003 HT17)          Discovered 2003-Apr-25 by Spacewatch at Kitt Peak
Reference: Last Updated: 2014-05-15

[ show close-approach data ]
Alternate Designations
 2003 HT17 = 2005 TS119 
Ephemeris | Orbit Diagram | Orbital Elements | Mission Design | Physical Parameters | Discovery Circumstances | Close-Approach Data ]
ABOUT SSD CREDITS/AWARDS PRIVACY/COPYRIGHT GLOSSARY LINKS
FirstGov 2020-Sep-28 13:37 UT
(server date/time)  
NASA Home Page
Site Manager:   Ryan S. Park
Webmaster  Alan B. Chamberlin